Theta_e
317 314 317 319 323 328 333 332 333 335 338 342 346 346 348 350 357 361 352 354 353 340 336 335 332 329 330 339 340 337 336 330 325 324 326 327 329 332 330 329 326 328 329 329 330 330 328 325 324
317 328 324 319 321 325 331 333 332 334 335 341 344 343 348 353 347 353 352 354 353 336 336 333 331 325 329 340 341 337 337 330 325 325 326 329 329 328 327 327 329 330 330 330 329 326 324 322 321
318 326 322 320 320 322 325 329 334 333 334 340 340 342 344 355 349 353 353 354 351 336 334 332 328 323 330 340 341 337 337 331 325 325 326 327 327 327 328 329 330 330 328 327 325 323 322 321 321
322 323 321 320 321 321 322 326 330 334 333 338 337 340 352 353 353 356 353 353 349 338 334 332 325 326 332 339 341 337 338 332 325 325 326 327 328 329 329 327 326 325 324 323 322 321 321 321 321
323 323 321 320 321 322 324 324 325 328 331 335 335 338 352 352 354 354 353 352 347 344 336 332 325 326 335 340 340 337 338 333 326 325 326 327 328 327 325 324 323 322 322 321 321 321 321 321 321
323 323 323 322 321 323 324 324 326 327 329 334 335 336 354 354 353 354 354 354 347 346 336 332 327 323 334 341 339 337 338 334 327 325 325 326 325 324 323 322 322 321 321 322 321 321 321 320 320
322 324 324 323 323 324 324 324 326 327 328 332 335 337 352 351 354 354 355 354 346 347 336 332 329 325 323 336 338 337 338 334 328 325 325 325 324 323 322 322 322 322 321 321 321 321 321 321 323
319 323 324 324 323 323 325 325 325 325 326 328 335 336 349 350 354 354 356 353 347 348 339 333 330 328 322 325 335 336 336 332 327 325 324 323 323 322 322 322 322 321 321 322 322 322 323 327 340
319 322 324 323 323 323 324 325 325 326 326 326 333 338 348 353 353 354 356 351 349 348 344 338 332 329 323 320 328 332 331 328 326 326 324 322 322 322 322 322 324 322 322 322 327 327 331 340 345
320 322 321 322 323 323 324 325 325 326 326 326 329 350 352 351 354 355 354 351 349 347 344 343 341 332 332 321 322 326 325 325 326 326 323 323 333 330 338 334 323 322 321 328 344 343 346 348 346
317 320 320 321 321 321 323 324 324 325 326 326 327 348 350 350 353 354 353 352 349 347 344 343 342 338 338 337 321 321 321 324 327 326 323 338 340 340 339 335 335 339 338 348 345 345 348 346 350
317 318 319 320 320 321 322 322 323 324 324 325 325 328 346 347 350 352 352 351 349 347 345 343 342 339 339 338 321 321 323 328 329 330 325 340 342 341 334 337 337 338 342 347 346 347 349 347 347
317 317 318 319 320 320 320 321 322 322 323 323 324 324 337 345 347 350 351 351 349 347 345 343 344 340 340 340 328 335 337 339 341 343 338 341 339 340 336 337 337 339 344 344 347 349 349 347 341
317 317 317 317 319 320 321 321 321 322 321 322 323 324 328 345 346 349 350 349 349 347 345 344 345 342 348 342 336 337 336 336 339 341 342 341 336 340 337 333 329 338 345 345 350 349 344 340 340
317 317 317 318 318 318 320 321 321 321 321 321 321 323 328 342 344 347 348 348 349 347 346 345 346 344 349 346 343 342 340 339 339 338 339 336 335 339 336 335 336 344 346 349 348 344 339 338 335
318 318 318 318 318 319 318 321 322 321 321 321 321 322 328 338 345 346 349 349 348 348 347 347 348 348 349 348 346 346 346 344 342 340 339 337 333 339 337 333 340 344 349 348 342 341 336 333 325
316 318 318 318 318 319 319 319 321 321 321 321 322 323 328 331 341 349 349 352 349 349 347 349 349 350 348 348 349 347 348 345 345 342 340 338 334 335 334 333 343 350 350 342 342 339 332 329 319
315 315 317 317 318 318 319 319 319 319 322 322 322 323 325 327 329 347 350 351 352 351 350 349 349 350 348 349 350 347 348 347 345 342 339 338 335 337 337 338 345 350 349 343 340 337 333 328 323
313 317 317 317 318 318 318 319 319 320 321 323 322 322 324 327 330 336 342 353 352 352 352 350 350 350 348 350 351 347 348 347 344 339 338 335 335 336 338 336 344 349 347 342 339 334 332 329 326
314 313 313 314 317 319 318 318 319 320 321 322 324 322 324 327 329 336 355 354 353 352 352 351 350 349 351 350 347 347 345 345 340 338 337 335 337 339 341 343 343 346 343 342 336 331 330 329 325
315 315 315 314 316 318 318 318 319 320 321 322 323 322 324 328 330 344 354 355 354 352 351 351 350 349 352 349 349 346 342 340 337 337 339 339 343 341 344 345 346 345 342 339 337 332 328 324 323
316 315 316 315 316 317 319 319 320 321 322 323 324 323 324 325 334 348 353 354 354 353 351 349 347 347 350 346 346 343 336 337 337 340 341 344 345 344 346 347 346 343 337 335 333 330 326 320 317
318 316 317 318 317 322 322 321 319 321 321 324 325 324 323 325 336 347 353 353 352 353 352 350 348 342 337 334 334 336 333 336 344 346 346 345 346 346 346 346 343 342 338 336 330 327 328 328 317
318 316 318 321 321 324 326 323 321 321 323 324 325 323 323 324 328 343 352 352 353 353 352 351 349 345 338 334 342 337 340 348 348 349 347 345 344 344 344 341 340 339 334 330 328 328 325 317 317
318 320 321 321 323 322 320 324 326 321 324 323 325 324 323 324 325 342 350 353 352 352 352 351 349 348 345 337 344 343 348 347 347 345 345 344 342 342 339 339 337 332 330 328 326 322 317 317 316
318 319 321 327 321 318 320 324 324 322 323 323 323 324 323 324 325 341 349 352 353 352 352 351 350 349 347 342 347 347 346 344 346 345 340 340 339 340 339 336 332 330 328 325 319 317 318 317 315
319 321 318 321 326 329 323 323 323 322 324 325 325 324 324 324 326 342 350 352 351 351 353 351 350 349 347 347 348 346 346 347 345 342 342 340 338 335 334 333 330 326 325 319 317 318 318 315 311
322 322 325 327 333 329 324 324 324 325 326 327 325 326 325 325 332 341 345 353 353 353 352 351 349 349 349 348 347 346 345 345 345 344 343 340 338 334 332 329 326 325 319 317 318 317 317 315 310
322 324 322 319 323 332 327 328 331 331 327 327 326 325 325 325 338 340 342 348 350 352 351 350 349 349 349 348 348 347 346 345 345 343 340 336 335 331 328 326 322 318 319 318 318 315 313 312 309
320 322 323 326 330 330 332 335 329 328 328 327 326 325 326 326 339 341 342 348 351 349 351 351 351 349 349 348 348 346 345 343 342 339 336 335 332 327 324 324 323 321 318 319 320 319 318 314 309
Wind_Speed
9 3 3 9 7 8 19 22 22 25 22 6 17 11 14 5 7 5 17 20 21 26 31 29 26 25 25 25 23 20 18 17 17 17 17 17 15 14 13 12 11 10 8 8 8 7 6 5 5
12 9 13 10 9 15 17 23 25 23 28 8 15 15 15 3 8 13 14 20 19 30 31 29 26 24 26 25 23 20 18 16 16 17 17 17 15 14 13 12 10 8 6 5 5 5 5 5 6
10 4 13 6 15 18 21 24 22 25 31 11 6 0 3 27 26 18 16 23 21 31 30 27 25 24 26 25 23 21 18 16 16 16 16 16 15 14 12 10 8 7 5 4 3 3 4 5 6
5 8 13 14 23 27 30 24 26 25 25 13 7 4 13 12 8 15 26 26 22 28 28 28 25 25 27 26 23 21 18 15 15 15 16 15 14 13 11 9 7 5 4 3 2 2 3 5 6
12 13 12 18 26 28 23 30 36 29 29 18 16 11 11 13 15 18 24 23 25 25 26 28 25 24 26 26 24 21 18 15 15 15 15 14 13 11 9 7 6 4 3 1 1 2 4 6 7
15 16 15 20 26 26 28 35 30 25 33 24 15 18 15 15 17 18 22 21 23 26 26 29 26 23 24 24 23 21 17 15 14 15 14 13 12 9 8 6 5 3 1 1 2 3 5 7 9
18 15 21 25 26 26 26 32 26 26 22 24 20 14 19 19 19 21 23 23 26 23 27 29 27 24 23 22 22 21 18 15 15 15 14 12 10 9 7 5 4 2 1 2 4 5 6 7 8
26 16 28 26 23 31 28 30 33 35 31 25 19 13 19 25 24 23 24 24 25 20 26 30 28 27 24 24 22 21 19 17 16 15 13 12 10 8 7 5 3 1 2 3 5 6 6 7 6
25 17 20 29 29 22 29 27 33 33 35 30 22 4 28 24 23 24 25 28 25 22 22 25 26 25 24 24 25 23 20 18 17 15 13 11 9 7 5 5 2 2 2 4 5 6 6 5 9
20 18 29 25 25 25 29 29 33 29 27 25 27 20 22 25 25 25 29 33 30 25 22 22 22 23 21 23 25 24 22 20 18 15 13 10 6 4 3 2 2 4 4 2 7 8 5 7 10
26 23 26 26 33 37 30 30 35 27 22 23 28 21 21 25 23 25 28 32 34 29 23 23 24 22 22 21 25 24 22 20 17 15 14 11 10 10 12 6 4 3 3 3 7 6 3 4 5
24 30 32 32 38 32 26 38 28 30 26 22 26 28 26 24 26 26 29 30 35 32 24 26 28 24 22 22 25 22 21 17 16 14 17 14 16 13 8 3 9 5 2 1 6 6 7 7 8
25 25 34 34 32 34 37 28 26 30 26 18 20 32 27 27 27 28 29 31 32 36 29 29 29 26 26 22 22 18 17 17 14 13 17 14 17 12 13 11 13 6 6 7 9 11 12 12 11
25 29 26 33 29 33 25 26 29 29 25 24 21 26 18 34 30 30 30 29 32 36 31 32 31 30 22 21 22 20 19 18 17 17 18 18 12 14 13 15 11 5 5 10 10 9 13 13 10
22 24 22 24 25 25 31 25 28 29 24 28 30 28 22 38 34 35 34 31 34 34 39 34 33 34 26 22 23 21 19 19 17 17 15 14 17 16 16 12 4 6 13 12 12 12 9 5 7
23 20 18 24 25 22 28 25 25 34 30 29 34 32 24 17 38 39 39 32 33 35 38 36 34 34 27 28 26 24 19 17 17 15 16 16 19 17 15 12 6 13 14 13 12 10 7 10 7
17 21 24 23 22 24 24 29 27 33 36 30 32 31 25 22 22 29 39 34 37 35 38 35 32 28 32 31 27 26 18 19 15 16 17 17 16 16 14 10 13 15 16 15 11 9 10 11 4
18 22 22 23 22 24 28 26 27 34 33 32 32 32 24 27 25 27 45 47 39 33 36 36 32 29 33 31 25 23 17 19 15 15 15 13 12 12 13 15 13 16 18 17 14 14 11 10 11
18 20 26 26 27 26 25 26 26 25 31 27 33 32 29 25 23 23 28 43 41 35 34 39 37 29 29 28 26 22 20 16 15 14 14 14 13 12 16 17 16 17 19 19 13 11 11 13 15
16 21 26 24 26 26 25 26 24 23 25 32 31 37 34 30 27 26 25 31 34 40 36 39 39 33 32 31 28 21 22 19 19 17 14 14 13 16 17 19 17 19 19 14 10 9 10 11 10
17 19 21 23 26 27 21 24 21 22 26 32 30 40 32 28 33 27 24 32 32 33 39 40 36 36 36 35 31 31 27 21 22 18 18 18 15 15 15 18 19 17 11 13 12 10 5 1 8
19 19 22 20 20 16 19 15 20 22 22 23 25 39 34 33 34 31 31 32 36 34 31 35 39 39 38 35 29 25 25 22 22 19 22 19 16 14 17 18 22 15 14 15 11 9 4 2 6
22 8 8 14 18 15 24 12 15 23 20 24 20 28 35 34 33 34 37 36 34 35 35 32 34 36 33 28 24 23 21 19 17 20 14 17 19 19 21 20 19 14 15 13 10 7 7 10 8
12 5 12 12 6 7 21 18 18 20 24 23 20 22 29 31 31 36 38 41 36 33 33 33 30 29 29 28 23 20 19 21 19 18 13 14 17 18 16 16 17 12 12 11 7 5 4 5 9
15 7 2 5 7 15 18 16 20 24 27 29 24 29 31 37 40 36 37 42 39 36 34 33 30 29 28 30 24 19 21 19 15 13 15 15 13 16 17 15 14 12 11 7 4 2 4 6 11
6 10 3 6 12 12 22 18 23 22 24 38 41 40 40 34 41 38 37 37 39 37 36 31 29 29 28 29 26 27 25 20 15 10 13 13 14 19 18 15 14 13 10 8 1 1 8 12 15
3 8 7 5 19 6 16 24 23 23 20 29 29 36 37 34 40 39 40 38 42 39 37 33 31 29 30 29 29 24 20 15 11 13 15 17 17 15 17 15 14 12 9 6 4 5 9 14 16
9 7 2 4 5 4 8 7 12 17 18 24 28 27 35 34 38 37 40 47 48 47 41 33 33 31 30 27 23 21 19 18 19 20 22 19 15 12 17 16 14 10 8 5 2 6 12 16 18
7 3 5 2 4 4 6 8 9 8 16 22 25 34 33 36 40 40 34 36 43 39 38 34 32 30 29 26 27 25 23 23 22 21 18 16 15 16 19 16 13 11 11 4 3 9 13 17 17
4 11 9 2 5 8 7 2 14 19 12 23 25 35 33 39 36 39 36 31 53 41 44 42 41 35 33 33 29 25 21 19 18 15 14 14 15 19 14 9 7 5 4 1 8 13 17 21 17
Wind_Direction
227 211 272 264 246 233 250 250 246 262 272 171 118 94 98 193 326 76 131 144 161 154 158 157 157 157 158 162 161 155 149 142 134 131 131 133 132 128 125 122 119 114 107 104 95 85 72 59 45
215 222 242 260 235 238 245 242 251 251 255 78 107 80 108 172 119 133 121 150 162 157 158 158 157 161 160 163 164 160 155 147 138 135 135 134 134 132 131 130 127 119 112 103 91 73 58 44 32
199 204 234 217 235 236 246 242 244 242 259 164 173 3 181 137 170 154 148 152 161 156 161 158 156 160 160 165 167 163 159 152 142 141 139 139 138 138 137 137 133 124 118 104 79 61 43 27 18
225 238 244 251 239 226 244 255 263 262 237 176 180 223 91 97 102 125 150 148 147 154 163 157 157 160 160 165 167 167 164 158 150 147 145 143 144 144 145 144 141 136 127 109 87 48 20 12 3
227 248 230 239 243 249 249 234 257 271 281 217 180 202 121 119 117 133 150 145 142 149 165 157 156 161 162 165 168 170 171 165 159 155 154 152 154 154 151 153 150 140 131 124 45 3 355 356 355
230 227 245 233 244 243 246 256 258 248 261 272 183 183 117 129 128 145 153 149 150 162 163 158 156 161 165 167 171 173 177 173 169 165 162 164 162 162 163 164 155 150 171 5 343 340 343 348 357
241 228 237 246 255 243 245 240 254 265 253 256 247 190 135 148 137 146 157 152 154 172 168 161 158 161 169 173 178 177 181 185 179 173 170 173 170 171 173 168 172 184 276 336 325 332 340 349 14
231 250 253 243 248 252 260 241 243 246 262 256 234 241 155 146 141 148 158 155 154 157 167 165 165 164 170 175 185 182 185 192 186 180 177 180 176 180 179 186 200 223 302 321 328 336 351 15 40
237 244 247 248 249 257 259 262 257 237 239 253 232 232 134 133 141 152 160 159 158 159 167 168 169 169 172 178 184 185 188 193 187 185 182 182 182 188 194 214 202 263 304 333 354 2 19 51 15
234 243 243 254 260 261 269 266 263 263 221 220 232 110 124 137 149 162 169 164 159 160 164 172 169 169 170 178 182 185 186 189 187 189 183 177 159 194 252 207 279 309 339 339 21 35 31 30 9
232 245 253 253 252 265 270 265 265 266 256 203 216 150 147 145 153 172 179 173 162 163 166 176 177 164 168 180 179 183 184 188 189 191 179 149 161 212 207 251 335 0 30 340 350 3 335 352 308
250 246 249 253 264 264 257 267 272 275 278 226 210 230 169 167 165 181 186 178 166 161 170 177 183 167 174 191 182 183 186 188 189 196 178 165 199 223 183 254 281 324 340 248 294 309 184 273 258
258 252 254 251 254 262 269 274 271 266 268 286 215 219 202 179 179 181 188 182 171 161 171 177 184 173 182 193 174 180 186 185 184 201 203 189 207 216 205 201 207 240 230 263 250 236 247 269 279
282 277 263 257 254 254 261 262 264 266 263 282 262 247 225 176 179 181 187 185 175 166 167 178 184 173 188 186 170 183 184 187 192 211 226 191 201 216 239 223 232 212 239 260 236 260 281 277 283
278 272 275 271 252 252 254 255 252 255 254 258 261 250 238 180 180 182 184 183 178 173 169 181 185 179 181 176 172 185 179 195 197 212 225 217 204 219 230 246 250 242 246 240 249 270 279 286 276
275 282 266 249 249 246 248 245 240 240 250 250 250 251 225 223 181 182 179 181 174 173 175 178 185 183 182 183 179 183 190 192 200 207 222 236 223 219 234 224 230 253 232 246 264 249 230 243 229
254 258 254 255 249 243 236 241 244 235 234 243 249 246 212 216 211 205 176 173 178 181 179 179 182 188 186 189 189 188 183 194 207 204 228 246 226 215 244 211 250 234 238 260 244 258 233 255 273
278 269 245 251 258 229 236 234 238 243 232 230 240 245 222 217 228 192 175 177 171 173 187 186 181 197 191 190 191 194 189 202 200 214 226 245 232 213 239 225 234 239 254 271 262 260 272 286 295
293 270 279 284 287 257 238 234 237 230 248 227 217 240 234 204 212 215 188 161 171 172 183 190 185 192 189 192 185 192 185 211 196 215 219 232 242 208 234 243 243 253 268 272 270 274 288 297 301
274 274 278 267 277 276 247 242 228 228 231 244 202 225 232 187 201 212 174 156 177 178 181 191 196 189 195 193 187 184 185 198 197 207 209 232 238 216 231 249 256 264 268 263 270 280 296 311 337
252 264 258 264 266 273 267 243 230 225 227 233 217 214 224 184 191 188 175 169 174 184 193 195 190 189 192 194 186 189 190 194 198 199 209 211 231 229 244 256 257 257 260 266 264 276 272 340 8
275 255 256 259 266 265 274 252 222 227 221 223 242 197 216 202 180 178 175 177 173 182 193 195 194 196 199 202 197 191 177 183 196 200 212 215 226 247 241 242 259 246 212 248 264 256 234 320 345
277 297 323 292 257 281 270 256 238 215 204 216 229 193 204 193 178 177 176 182 186 181 189 194 197 201 199 200 190 186 188 194 203 211 215 233 243 243 243 246 255 250 244 257 243 235 284 312 315
102 339 275 294 258 262 246 241 237 207 192 209 212 218 200 206 192 181 177 173 178 180 187 191 192 192 190 187 183 192 170 203 205 220 226 248 241 240 244 239 247 242 229 227 226 265 251 305 321
238 176 253 236 209 235 214 223 240 219 192 196 205 213 229 203 192 180 174 175 176 178 180 184 184 186 186 181 176 176 190 211 208 229 235 236 217 213 237 240 226 212 214 213 232 234 301 323 337
260 165 183 274 213 215 221 208 222 219 215 194 198 202 217 209 186 179 178 176 172 177 175 182 185 184 182 179 176 183 191 207 217 235 233 211 221 218 227 222 215 214 197 169 144 350 335 338 337
40 226 192 240 258 235 205 206 209 224 226 184 188 206 209 208 184 177 173 175 175 176 176 180 178 180 181 179 186 184 185 188 200 184 201 222 232 237 227 215 199 165 155 149 155 354 325 341 344
169 142 249 242 312 277 165 204 203 190 214 204 181 194 201 205 176 174 182 175 174 165 164 166 174 176 175 178 179 173 175 188 196 202 204 222 234 235 208 189 163 158 150 144 88 336 327 330 338
178 81 48 7 254 271 193 176 2 330 162 167 182 181 196 194 171 173 190 175 157 163 166 163 165 167 166 170 175 178 183 189 194 202 210 213 216 193 174 160 150 154 158 150 339 347 336 338 338
174 165 189 42 321 315 284 223 343 312 213 170 172 177 188 188 171 167 185 176 158 157 154 153 156 154 165 170 172 178 193 186 190 198 211 202 193 165 143 138 162 150 151 286 350 335 326 326 333